#timestamp,LO_Frequency,Hit,StdDev 
1559786415.8,286046987.4,N
1559786435.6,286046986.5,N
1559786455.5,286046984.7,Y
1559786475.3,286046990.6,P
1559786495.1,286046990.3,P
1559786515.9,286046987.8,P
1559786535.7,286046987.7,Y
1559786555.6,286046999.6,P
1559786575.4,286046996.8,N
1559786595.2,286046997.9,N
1559786615.1,286046997.7,N
1559786616.0,286046997.7,N
1559786635.8,286046999.6,N
1559786655.6,286046999.5,N
1559786675.5,286046998.9,N
1559786695.3,286046999.3,N
1559786715.2,286046999.2,N
1559786735.9,286047001.1,N
1559786755.7,286046998.6,N
1559786775.6,286046996.7,N
1559786795.4,286046998.9,N
1559786815.2,286046999.6,N
1559786835.1,286046998.7,N
1559786836.0,286046998.7,N
1559786855.8,286046996.6,N
1559786875.7,286046997.0,N
1559786895.5,286046997.6,N
1559786915.3,286046997.8,N
1559786935.2,286046994.9,N
1559786955.9,286046995.1,N
1559786975.7,286046997.7,N
1559786995.6,286046996.5,N
1559787015.4,286046998.8,N
1559787035.2,286047000.0,N
1559787055.1,286046998.3,N
1559787056.0,286046998.3,N
1559787075.8,286046999.7,N
1559787095.7,286047000.3,N
1559787115.5,286047001.6,N
1559787135.3,286047001.4,N
1559787155.2,286047001.9,N
1559787175.0,286047002.7,N
1559787175.9,286047002.7,N
1559787195.8,286047003.9,N
1559787215.6,286047006.0,N
1559787235.4,286047005.6,N
1559787255.3,286047001.8,N
1559787275.1,286047002.5,N
1559787295.8,286047004.0,N
1559787315.7,286047003.6,N
1559787335.5,286047006.0,N
1559787355.4,286047004.8,N
1559787375.2,286047006.4,N
1559787395.0,286047008.8,N
1559787395.9,286047008.8,N
1559787415.8,286047009.1,N
1559787435.6,286047010.1,N
1559787455.4,286047012.4,Y
1559787475.3,286047009.6,P
1559787495.1,286047010.6,N
1559787515.9,286047010.4,N
1559787535.7,286047010.0,N
1559787555.5,286047009.8,Y
1559787575.4,286047004.2,P
1559787595.2,286047004.1,N
1559787615.0,286047005.4,N
1559787616.0,286047005.4,N
1559787635.8,286047006.9,Y
1559787655.6,286047002.3,P
1559787675.5,286047004.4,N
1559787695.3,286047005.5,P
1559787715.1,286047005.1,Y
1559787735.9,286047000.0,P
1559787755.7,286047001.6,N
1559787775.6,286047004.0,N
1559787795.4,286047003.3,N
1559787815.2,286047001.6,N
1559787835.1,286046998.3,N
1559787836.0,286046998.3,N
1559787855.8,286046995.0,N
1559787875.6,286046996.9,N
1559787895.5,286046999.2,N
1559787915.3,286046998.2,N
1559787935.2,286047003.9,N
1559787955.9,286047003.4,N
1559787975.7,286047006.9,N
1559787995.6,286047006.5,N
1559788015.4,286047006.8,N
1559788035.2,286047006.7,N
1559788055.1,286047007.1,N
1559788056.0,286047007.1,N
1559788075.8,286047007.6,N
1559788095.7,286047007.4,N
1559788115.5,286047009.2,N
1559788135.3,286047007.5,N
1559788155.2,286047007.0,N
1559788175.0,286047009.3,N
1559788175.9,286047011.9,N
1559788195.7,286047010.4,N
1559788215.6,286047007.8,N
1559788235.4,286047006.3,N
1559788255.3,286047008.3,N
1559788275.1,286047010.2,N
1559788295.8,286047011.3,N
1559788315.7,286047011.0,N
1559788335.5,286047013.8,Y
1559788355.4,286047006.3,P
1559788375.2,286047010.6,P
1559788395.0,286047009.1,P
1559788395.9,286047009.1,Y
1559788415.8,286047000.8,P
1559788435.6,286047001.1,N
1559788455.4,286047001.2,N
1559788475.3,286046998.3,N
1559788495.1,286046996.5,N
1559788515.9,286046999.1,N
1559788535.7,286046999.4,N
1559788555.5,286046999.5,N
1559788575.4,286046997.4,N
1559788595.2,286046993.6,N
1559788615.0,286046993.3,N
1559788615.9,286046993.3,N
1559788635.8,286046994.8,N
1559788655.6,286046991.8,N
1559788675.5,286046992.8,N
1559788695.3,286046993.0,N
1559788715.1,286046993.0,N
1559788735.9,286046994.7,N
1559788755.7,286046993.9,N
1559788775.5,286046997.3,N
1559788795.4,286046998.4,N
1559788815.2,286046999.3,N
1559788835.1,286046996.7,N
1559788836.0,286046996.7,N
1559788855.8,286046997.0,N
1559788875.6,286046998.9,N
1559788895.5,286046997.1,N
1559788915.3,286046997.5,N
1559788935.1,286046996.9,N
1559788955.9,286046997.2,N
1559788975.7,286046997.5,N
1559788995.6,286046997.3,N
1559789015.4,286046997.9,N
1559789035.2,286046995.9,N
1559789055.1,286046995.0,N
1559789056.0,286046995.0,N
1559789075.8,286046997.9,N
1559789095.6,286046995.6,N
1559789115.5,286046995.0,N
1559789135.3,286046995.4,N
1559789155.2,286046995.3,N
1559789175.9,286046996.9,N
1559789195.7,286046996.7,N
1559789215.6,286046999.1,N
1559789235.4,286046998.3,N
1559789255.2,286047001.2,N
1559789275.1,286047002.5,N
1559789276.0,286047002.5,N
1559789295.8,286047004.4,N
1559789315.7,286047004.1,N
1559789335.5,286047004.2,N
1559789355.3,286047005.5,N
1559789375.2,286047001.3,N
1559789395.0,286046999.8,N
1559789395.9,286046999.8,N
1559789415.7,286047000.6,N
1559789435.6,286047001.2,N
1559789455.4,286047000.4,N
1559789475.3,286046999.8,N
1559789495.1,286047002.7,N
1559789496.0,286047002.7,N
1559789515.8,286047002.4,N
1559789535.7,286047000.1,N
1559789555.5,286047002.6,N
1559789575.3,286047002.2,N
1559789595.2,286047002.8,N
1559789615.0,286046998.4,N
1559789615.9,286046998.4,N
1559789635.8,286046998.6,N
1559789655.6,286047001.1,N
1559789675.4,286046998.9,N
1559789695.3,286046998.5,N
1559789715.1,286047001.1,N
1559789735.8,286046998.4,N
1559789755.7,286047002.1,N
1559789775.5,286047001.3,N
1559789795.4,286047001.5,N
1559789815.2,286047003.9,N
1559789835.0,286047003.4,N
1559789835.9,286047003.4,N
1559789855.8,286047003.4,N
1559789875.6,286047003.4,N
1559789895.5,286047007.6,Y
1559789915.3,286047006.0,P
1559789935.1,286047006.9,N
1559789955.9,286047006.7,N
1559789975.7,286047010.8,Y
1559789995.6,286047002.6,P
